Weather History for Pittsfield, MA

Change the Weather History Date:

Sunday, January 20, 2013

  Actual Average Record
Temperature  
Mean Temperature 30 °F 20 °F  
Max Temperature 41 °F 29 °F 56 °F (1951)
Min Temperature 19 °F 11 °F -11 °F (1946)
Degree Days  
Heating Degree Days 35 45  
Month to date heating degree days 766 893  
Since 1 July heating degree days 3302 3731  
Cooling Degree Days 0 0  
Month to date cooling degree days 0 0  
Year to date cooling degree days 0 0  
Moisture  
Dew Point 20 °F    
Average Humidity 49    
Maximum Humidity 64    
Minimum Humidity 33    
Precipitation  
Precipitation 0.01 in 0.07 in 1.09 in (1947)
Month to date precipitation 0.60 2.00  
Year to date precipitation 0.60 2.00  
Sea Level Pressure  
Sea Level Pressure 29.72 in    
Wind  
Wind Speed 15 mph (West)    
Max Wind Speed 31 mph    
Max Gust Speed 51 mph    
Visibility 9 miles    
Events Rain , Snow    
T = Trace of Precipitation, MM = Missing Value Source: NWS Daily Summary

Daily Weather History Graph

Daily Weather History Graph

Search for Another Location

Airport:

Trip Planner

Search our weather history database for the weather conditions in past years. The results will help you decide how hot, cold, wet, or windy it might be!

Date:

Astronomy

Jan. 20, 2013 Rise Set
Actual Time 7:16 AM EST 4:52 PM EST
Civil Twilight 6:46 AM EST 5:22 PM EST
Nautical Twilight 6:11 AM EST 5:57 PM EST
Astronomical Twilight 5:38 AM EST 6:30 PM EST
Moon 11:51 AM EST (1/20) 1:46 AM EST (1/20)
Length of Visible Light 10h 36m
Length of Day
9h 35m
Waxing Gibbous, 66% of the Moon is Illuminated
Jan 20
Waxing Gibbous
Jan 26
Full
Feb 3
Last Quarter
Feb 10
New
Feb 17
First Quarter

Hourly Weather History & Observations

Time (EST) Temp. Windchill Dew Point Humidity Pressure Visibility Wind Dir Wind Speed Gust Speed Precip Events Conditions
12:54 AM 41.0 °F 34.7 °F 24.1 °F 51% 29.76 in 10.0 mi SSW 10.4 mph 18.4 mph N/A   Overcast
1:54 AM 39.9 °F 35.1 °F 24.1 °F 53% 29.74 in 10.0 mi SSW 6.9 mph - N/A   Clear
3:54 AM 37.0 °F 28.5 °F 24.1 °F 59% 29.69 in 10.0 mi South 13.8 mph 19.6 mph N/A   Clear
4:54 AM 36.0 °F 30.3 °F 24.1 °F 62% 29.64 in 10.0 mi Variable 6.9 mph - N/A   Clear
5:54 AM 36.0 °F 28.5 °F 24.1 °F 62% 29.62 in 10.0 mi SSW 10.4 mph - N/A   Clear
6:54 AM 36.0 °F 27.5 °F 24.1 °F 62% 29.59 in 10.0 mi SSW 12.7 mph 17.3 mph N/A   Clear
7:54 AM 37.0 °F 28.1 °F 24.1 °F 59% 29.60 in 10.0 mi SSW 15.0 mph 26.5 mph N/A   Clear
8:54 AM 39.0 °F 30.3 °F 25.0 °F 57% 29.58 in 10.0 mi South 16.1 mph 19.6 mph N/A   Partly Cloudy
9:54 AM 41.0 °F 33.9 °F 25.0 °F 53% 29.57 in 10.0 mi SSW 12.7 mph 20.7 mph N/A   Scattered Clouds
10:54 AM 41.0 °F 34.3 °F 26.1 °F 55% 29.57 in 10.0 mi SW 11.5 mph 18.4 mph N/A   Overcast
11:32 AM 37.4 °F 28.9 °F 30.2 °F 75% 29.60 in 9.0 mi WNW 13.8 mph 27.6 mph 0.00 in Rain Light Rain
11:50 AM 35.6 °F 26.6 °F 30.2 °F 81% 29.60 in 8.0 mi West 13.8 mph 24.2 mph 0.00 in Rain Light Rain
11:54 AM 36.0 °F 27.1 °F 30.9 °F 82% 29.61 in 9.0 mi WSW 13.8 mph 24.2 mph 0.00 in Rain Light Rain
12:20 PM 35.6 °F 29.2 °F 32.0 °F 87% 29.60 in 9.0 mi West 8.1 mph - 0.01 in Rain Light Rain
12:33 PM 35.6 °F 29.2 °F 32.0 °F 87% 29.60 in 10.0 mi WSW 8.1 mph - 0.01 in   Overcast
12:54 PM 37.0 °F 28.9 °F 30.0 °F 76% 29.60 in 10.0 mi West 12.7 mph 21.9 mph 0.01 in   Partly Cloudy
1:54 PM 39.9 °F 30.2 °F 12.0 °F 32% 29.62 in 10.0 mi WNW 20.7 mph 38.0 mph N/A   Clear
2:54 PM 37.0 °F 25.1 °F 12.0 °F 36% 29.67 in 10.0 mi WNW 26.5 mph 40.3 mph N/A   Clear
3:54 PM 32.0 °F 22.1 °F 17.1 °F 54% 29.74 in 10.0 mi WNW 13.8 mph 26.5 mph N/A   Clear
4:54 PM 28.0 °F 16.5 °F 16.0 °F 61% 29.80 in 10.0 mi WNW 15.0 mph 31.1 mph N/A   Clear
5:54 PM 26.1 °F 14.0 °F 12.9 °F 58% 29.83 in 10.0 mi WNW 15.0 mph 23.0 mph N/A   Scattered Clouds
6:54 PM 25.0 °F 13.1 °F 12.0 °F 58% 29.86 in 10.0 mi WNW 13.8 mph 20.7 mph N/A   Partly Cloudy
7:54 PM 24.1 °F 8.3 °F 7.0 °F 48% 29.89 in 10.0 mi WNW 24.2 mph 33.4 mph N/A   Mostly Cloudy
8:54 PM 24.1 °F 9.8 °F 8.1 °F 51% 29.89 in 10.0 mi West 19.6 mph 29.9 mph N/A   Overcast
9:54 PM 23.0 °F 7.2 °F 7.0 °F 50% 29.92 in 10.0 mi West 23.0 mph 40.3 mph N/A   Overcast
10:54 PM 21.9 °F 10.4 °F 12.9 °F 68% 29.94 in 5.0 mi NW 11.5 mph 18.4 mph 0.00 in Snow Light Snow
11:12 PM 21.2 °F 8.3 °F 15.8 °F 80% 29.91 in 2.5 mi NW 13.8 mph 20.7 mph 0.00 in Snow Light Snow
11:40 PM 19.4 °F 4.5 °F 12.2 °F 74% 29.92 in 5.0 mi NW 17.3 mph 24.2 mph 0.00 in Snow Light Snow
11:54 PM 19.0 °F 6.1 °F 12.0 °F 74% 29.96 in 9.0 mi WNW 12.7 mph 25.3 mph 0.00 in   Overcast